Location: Hains Lake
(37.8540°N, 99.8578°W)
Time: 22:23:16
(UTC+00:00)

Vanguard 2 Rocket - Pass Details

Date: 25 April 2021
Orbit: 553 x 3326 km, 32.9° (Epoch: 05 May)

Event Time Altitude Azimuth Distance (km) Brightness Sun altitude
Rises 15:49:31 0° 197° (SSW) 4,808 10.7 45.5°
Reaches altitude 10° 15:53:03 10° 184° (S) 4,215 10.6 46.2°
Maximum altitude 16:02:27 26° 133° (SE) 3,955 11.5 47.9°
Drops below altitude 10° 16:15:28 10° 87° (E) 5,985 11.8 50.2°
Sets 16:21:46 0° 77° (ENE) 7,232 11.9 51.3°
